Home > Weather > Richmond Hill > Past weeks

Flag for Canada Past Weather in Richmond Hill, Ontario, Canada — Yesterday and Last 2 Weeks

Now
73 °F

Passing clouds.


Feels Like: 72 °F
Forecast: 72 / 88 °F
Wind: 6 mph from Southwest

Location: Toronto Buttonville

Current Time: Jul 25, 2016 at 4:13:13 AM

Latest Report: Jul 25, 2016 at 3:00 AM


Visibility: 13 mi

Pressure: 29.85 "Hg

Humidity: 89%

Dew Point: 70 °F

Location of Richmond HillLocation

Past Weather in Richmond Hill — Graph

°F

Richmond Hill Temperature Yesterday

Maximum temperature yesterday: 81 °F (at 2:00 PM)
Minimum temperature yesterday: 66 °F (at 6:00 AM)
Average temperature yesterday: 73 °F

High & Low Weather Summary for the Past Weeks

 TemperatureHumidityPressure
High93 °F (Jul 13, 6:00 PM)94% (Jul 14, 2:00 AM)30.28 "Hg (Jul 14, 2:00 AM)
Low55 °F (Jul 17, 4:00 AM)24% (Jul 22, 5:45 PM)29.71 "Hg (Jul 14, 6:00 PM)
Average74 °F60%29.98 "Hg
* Reported Jul 10 3:00 AM — Jul 25 3:00 AM, Richmond Hill, Weather by CustomWeather, © 2016

Note: Actual official high and low records may vary slightly from our data, if they occured in-between our weather recording intervals... More about our weather records

Advertising

Richmond Hill Weather History for the Previous 24 Hours

Scroll right to see more
 ConditionsComfort  
Time TempWeatherWind HumidityBarometerVisibility
3:00 AM
Mon, Jul 25
73 °FPassing clouds.6 mph89%29.85 "Hg13 mi
2:00 AM72 °FPartly cloudy.3 mph88%29.86 "Hg11 mi
1:52 AM72 °FPassing clouds.3 mph83%29.86 "Hg12 mi
1:00 AM72 °FPassing clouds.3 mph83%29.88 "Hg15 mi
12:00 AM72 °FPassing clouds.2 mph83%29.89 "Hg15 mi
11:00 PM
Sun, Jul 24
72 °FPartly cloudy.6 mph78%29.91 "Hg15 mi
10:00 PM73 °FPassing clouds.9 mph69%29.93 "Hg15 mi
9:00 PM73 °FPassing clouds.8 mph74%29.93 "Hg15 mi
8:00 PM75 °FScattered clouds.8 mph65%29.94 "Hg15 mi
7:00 PM77 °FPartly sunny.8 mph61%29.95 "Hg15 mi
6:00 PM77 °FBroken clouds.10 mph61%29.94 "Hg15 mi
5:00 PM77 °FOvercast.9 mph65%29.95 "Hg15 mi
4:00 PM77 °FOvercast.8 mph65%29.94 "Hg15 mi
3:00 PM79 °FOvercast.9 mph61%29.97 "Hg15 mi
2:00 PM81 °FOvercast.10 mph54%29.98 "Hg15 mi
1:00 PM77 °FBroken clouds.9 mph61%29.99 "Hg15 mi
12:00 PM75 °FBroken clouds.9 mph61%30.01 "Hg15 mi
11:00 AM75 °FPartly sunny.9 mph61%30.03 "Hg15 mi
10:00 AM73 °FOvercast.8 mph61%30.03 "Hg15 mi
9:00 AM73 °FPartly sunny.12 mph57%30.02 "Hg15 mi
8:00 AM72 °FBroken clouds.10 mph61%30.03 "Hg15 mi
7:00 AM68 °FPartly sunny.5 mph73%30.02 "Hg15 mi
6:00 AM66 °FPassing clouds.2 mph83%30.02 "Hg15 mi
5:00 AM68 °FPassing clouds.2 mph78%30.01 "Hg15 mi
4:00 AM68 °FPassing clouds.5 mph78%30.01 "Hg15 mi
Weather by CustomWeather, © 2016

See weather overviewHow to use our weather pages